User: anonymous   Login
Location: Unspecified
(0.0000°N, 0.0000°E)
Time: 09:26:16
(UTC+00:00)
Language:

IRS-1B - Orbit

View from above orbital plane
View from above orbital plane
View from above satellite
View from above satellite

Ground track
Ground track

The orbit data is extracted from the following two-line orbital elements,

1 21688U 91061A   18018.45941678 -.00000211 +00000-0 -11921-3 0  9997
2 21688 099.0598 323.4209 0025250 107.5145 358.4831 13.97309849239455
Epoch (UTC): 18 January 2018 11:01:33
Eccentricity: 0.0025250
inclination: 99.0598°
perigee height: 885 km
apogee height: 921 km
right ascension of ascending node: 323.4209°
argument of perigee: 107.5145°
revolutions per day: 13.97309849
mean anomaly at epoch: 358.4831°
orbit number at epoch: 23945

The dashed part of the orbit path shows where the satellite is in the earth's shadow,  

DLR